N3EYQ Weather Reports


Display with metric or nautical units.
time (UTC)temp
F
wind
direction
speed
MPH
gust
MPH
rain 1hr
in
rain 24hr
in
rain mn
in
humidity
%
barometer
mb
20260507012116 55 0 0.0 0.0 0.00 0.00 0.00 86 1009.3
20260507011116 55 0 0.0 0.0 0.00 0.00 0.00 86 1009.3
20260507010115 56 0 0.0 0.0 0.00 0.00 0.00 86 1008.9
20260507005116 56 0 0.0 0.0 0.00 0.00 0.00 85 1008.6
20260507004115 57 0 0.0 0.0 0.00 0.00 0.00 86 1008.3
20260507003115 58 0 0.0 0.0 0.00 0.00 0.00 87 1008.3
20260507002115 59 0 0.0 0.0 0.00 0.00 0.00 86 1007.9
20260507001115 60 0 0.0 0.0 0.00 0.00 0.00 86 1007.6
20260507000115 60 0 0.0 0.0 0.00 0.00 0.00 86 1007.2
20260506235116 61 0 0.0 0.0 0.00 0.00 0.00 86 1007.2
20260506234115 62 0 0.0 0.0 0.00 0.00 0.00 87 1006.9
20260506233114 62 0 0.0 0.0 0.00 0.00 0.00 87 1006.6
20260506232115 62 0 0.0 0.0 0.00 0.00 0.00 86 1006.2
20260506231114 62 0 0.0 0.0 0.00 0.00 0.00 86 1006.2
20260506230114 62 0 0.0 0.0 0.00 0.00 0.00 86 1006.2
20260506225114 62 0 0.0 0.0 0.00 0.00 0.00 87 1005.9
20260506224114 62 0 0.0 0.0 0.00 0.00 0.00 86 1005.9
20260506223113 62 0 0.0 0.0 0.00 0.00 0.00 86 1005.9
20260506222113 62 0 0.0 0.0 0.00 0.00 0.00 86 1005.6
20260506221114 62 0 0.0 0.0 0.00 0.00 0.00 86 1005.6
20260506220114 62 0 0.0 0.0 0.00 0.00 0.00 86 1005.6
20260506215113 63 0 0.0 0.0 0.00 0.00 0.00 86 1005.6
20260506214113 62 0 0.0 0.0 0.00 0.00 0.00 87 1005.6
20260506213113 62 0 0.0 0.0 0.00 0.00 0.00 86 1005.6
20260506212113 62 0 0.0 0.0 0.00 0.00 0.00 86 1005.6
20260506211112 62 0 0.0 0.0 0.00 0.00 0.00 87 1005.6
20260506210112 62 0 0.0 0.0 0.00 0.00 0.00 87 1005.6
20260506205112 62 0 0.0 0.0 0.00 0.00 0.00 85 1005.2
20260506204113 62 0 0.0 0.0 0.00 0.00 0.00 85 1005.2
20260506203112 62 0 0.0 0.0 0.00 0.00 0.00 85 1005.6
20260506202112 62 0 0.0 0.0 0.00 0.00 0.00 85 1005.6
20260506201112 62 0 0.0 0.0 0.00 0.00 0.00 86 1005.6
20260506200112 62 0 0.0 0.0 0.00 0.00 0.00 85 1005.6
20260506195111 62 0 0.0 0.0 0.00 0.00 0.00 85 1005.6
20260506194111 62 0 0.0 0.0 0.00 0.00 0.00 86 1005.9
20260506193111 62 0 0.0 0.0 0.00 0.00 0.00 85 1005.9
20260506192111 63 0 0.0 0.0 0.00 0.00 0.00 86 1005.9
20260506191111 62 0 0.0 0.0 0.00 0.00 0.00 85 1005.9
20260506190111 62 0 0.0 0.0 0.00 0.00 0.00 85 1006.2
20260506185111 62 0 0.0 0.0 0.00 0.00 0.00 86 1006.2
20260506184110 62 0 0.0 0.0 0.00 0.00 0.00 85 1006.2
20260506183130 62 0 0.0 0.0 0.00 0.00 0.00 85 1006.6
20260506182132 62 0 0.0 0.0 0.00 0.00 0.00 85 1006.6
20260506181110 62 0 0.0 0.0 0.00 0.00 0.00 85 1006.6
20260506180111 63 0 0.0 0.0 0.00 0.00 0.00 84 1006.6
20260506175110 63 0 0.0 0.0 0.00 0.00 0.00 84 1006.6
20260506174109 63 0 0.0 0.0 0.00 0.00 0.00 84 1006.6
20260506173111 63 0 0.0 0.0 0.00 0.00 0.00 83 1006.6
20260506172111 63 0 0.0 0.0 0.00 0.00 0.00 83 1006.6
20260506171110 63 0 0.0 0.0 0.00 0.00 0.00 83 1006.6
20260506170109 63 0 0.0 0.0 0.00 0.00 0.00 83 1006.6
20260506165109 63 0 0.0 0.0 0.00 0.00 0.00 83 1006.9
20260506164129 62 0 0.0 0.0 0.00 0.00 0.00 82 1007.2
20260506163108 62 0 0.0 0.0 0.00 0.00 0.00 83 1007.2
20260506162109 62 0 0.0 0.0 0.00 0.00 0.00 83 1007.6
20260506161131 63 0 0.0 0.0 0.00 0.00 0.00 82 1007.9
20260506160134 63 0 0.0 0.0 0.00 0.00 0.00 80 1007.9
20260506155108 63 0 0.0 0.0 0.00 0.00 0.00 82 1007.9
20260506154108 63 0 0.0 0.0 0.00 0.00 0.00 79 1007.9
20260506153108 63 0 0.0 0.0 0.00 0.00 0.00 79 1007.9
20260506152108 63 0 0.0 0.0 0.00 0.00 0.00 77 1008.3
20260506151108 64 0 0.0 0.0 0.00 0.00 0.00 78 1008.3
20260506150108 64 0 0.0 0.0 0.00 0.00 0.00 77 1008.3
20260506145107 64 0 0.0 0.0 0.00 0.00 0.00 76 1008.3
20260506144107 64 0 0.0 0.0 0.00 0.00 0.00 74 1008.3
20260506143107 65 0 0.0 0.0 0.00 0.00 0.00 73 1008.3
20260506142107 65 0 0.0 0.0 0.00 0.00 0.00 71 1008.3
20260506141107 66 0 0.0 0.0 0.00 0.00 0.00 70 1008.3
20260506140107 67 0 0.0 0.0 0.00 0.00 0.00 69 1008.3
20260506135106 67 0 0.0 0.0 0.00 0.00 0.00 67 1008.3
20260506134106 67 0 0.0 0.0 0.00 0.00 0.00 67 1008.3
20260506133107 67 0 0.0 0.0 0.00 0.00 0.00 66 1007.9
20260506132106 67 0 0.0 0.0 0.00 0.00 0.00 66 1007.9
20260506131107 67 0 0.0 0.0 0.00 0.00 0.00 66 1007.9
20260506130106 67 0 0.0 0.0 0.00 0.00 0.00 66 1007.6
20260506125106 67 0 0.0 0.0 0.00 0.00 0.00 65 1007.9
20260506124105 67 0 0.0 0.0 0.00 0.00 0.00 65 1008.3
20260506123106 67 0 0.0 0.0 0.00 0.00 0.00 65 1007.9
20260506122105 66 0 0.0 0.0 0.00 0.00 0.00 65 1008.3
20260506121105 66 0 0.0 0.0 0.00 0.00 0.00 65 1008.3
20260506120106 66 0 0.0 0.0 0.00 0.00 0.00 66 1008.3
20260506115106 66 0 0.0 0.0 0.00 0.00 0.00 65 1008.3
20260506114105 66 0 0.0 0.0 0.00 0.00 0.00 67 1008.3
20260506113105 65 0 0.0 0.0 0.00 0.00 0.00 66 1008.3
20260506112104 65 0 0.0 0.0 0.00 0.00 0.00 66 1008.3
20260506111105 64 0 0.0 0.0 0.00 0.00 0.00 66 1007.9
20260506110104 64 0 0.0 0.0 0.00 0.00 0.00 66 1007.9
20260506105105 63 0 0.0 0.0 0.00 0.00 0.00 66 1007.9
20260506104104 63 0 0.0 0.0 0.00 0.00 0.00 66 1008.3
20260506103104 63 0 0.0 0.0 0.00 0.00 0.00 66 1007.9
20260506102104 63 0 0.0 0.0 0.00 0.00 0.00 66 1007.6
20260506101104 63 0 0.0 0.0 0.00 0.00 0.00 66 1007.6
20260506100103 63 0 0.0 0.0 0.00 0.00 0.00 65 1007.6
20260506095103 63 0 0.0 0.0 0.00 0.00 0.00 66 1007.6
20260506094103 63 0 0.0 0.0 0.00 0.00 0.00 65 1007.9
20260506093103 63 0 0.0 0.0 0.00 0.00 0.00 65 1007.9
20260506092103 62 0 0.0 0.0 0.00 0.00 0.00 65 1007.6
20260506091103 62 0 0.0 0.0 0.00 0.00 0.00 66 1007.6
20260506085102 61 0 0.0 0.0 0.00 0.00 0.00 67 1007.9
20260506084102 60 0 0.0 0.0 0.00 0.00 0.00 67 1007.9
20260506083102 61 0 0.0 0.0 0.00 0.00 0.00 65 1008.3
20260506082103 61 0 0.0 0.0 0.00 0.00 0.00 63 1008.3
20260506081102 62 0 0.0 0.0 0.00 0.00 0.00 62 1008.3
20260506073101 64 0 0.0 0.0 0.00 0.00 0.00 58 1007.9
20260506072101 65 0 0.0 0.0 0.00 0.00 0.00 56 1008.3
20260506071101 66 0 0.0 0.0 0.00 0.00 0.00 54 1008.3
20260506062100 70 0 0.0 0.0 0.00 0.00 0.00 50 1008.6
20260506061100 69 0 0.0 0.0 0.00 0.00 0.00 49 1008.6
20260506051100 70 0 0.0 0.0 0.00 0.00 0.00 48 1008.6
20260506045100 69 0 0.0 0.0 0.00 0.00 0.00 49 1008.6
20260506044059 70 0 0.0 0.0 0.00 0.00 0.00 48 1008.6
20260506043059 71 0 0.0 0.0 0.00 0.00 0.00 46 1008.6
20260506042059 72 0 0.0 0.0 0.00 0.00 0.00 45 1008.6
20260506041059 72 0 0.0 0.0 0.00 0.00 0.00 44 1008.3
20260506040059 72 0 0.0 0.0 0.00 0.00 0.00 44 1008.6
20260506035058 72 0 0.0 0.0 0.00 0.00 0.00 44 1008.3
20260506034058 72 0 0.0 0.0 0.00 0.00 0.00 44 1008.3
20260506033059 72 0 0.0 0.0 0.00 0.00 0.00 44 1008.3
20260506032058 71 0 0.0 0.0 0.00 0.00 0.00 47 1008.3
20260506031058 68 0 0.0 0.0 0.00 0.00 0.00 49 1008.3
20260506030058 68 0 0.0 0.0 0.00 0.00 0.00 50 1008.3
20260506025059 69 0 0.0 0.0 0.00 0.00 0.00 49 1008.3
20260506024057 69 0 0.0 0.0 0.00 0.00 0.00 48 1008.3
20260506023058 70 0 0.0 0.0 0.00 0.00 0.00 47 1008.3
20260506022057 70 0 0.0 0.0 0.00 0.00 0.00 47 1008.3
20260506021058 71 0 0.0 0.0 0.00 0.00 0.00 47 1008.3
20260506020057 72 0 0.0 0.0 0.00 0.00 0.00 45 1008.3
20260506015057 72 0 0.0 0.0 0.00 0.00 0.00 43 1007.9
20260506014056 73 0 0.0 0.0 0.00 0.00 0.00 42 1007.9
20260506013056 73 0 0.0 0.0 0.00 0.00 0.00 41 1007.9